Timestamp,Net Demand,Generation,Import,Solar,Wind,STOR,Other
2024-05-01T20:10:00,216.62,0.52,216.10,0.52,0.00,0.00,0.00
2024-05-01T20:15:00,216.47,0.42,216.05,0.42,0.00,0.00,0.00
2024-05-01T20:20:00,216.21,0.26,215.95,0.26,0.00,0.00,0.00
2024-05-01T20:25:00,216.67,0.26,216.41,0.26,0.00,0.00,0.00
2024-05-01T20:30:00,216.71,0.26,216.45,0.26,0.00,0.00,0.00
2024-05-01T20:35:00,216.57,0.26,216.31,0.26,0.00,0.00,0.00
2024-05-01T20:40:00,216.02,0.26,215.76,0.26,0.00,0.00,0.00
2024-05-01T20:45:00,216.72,0.19,216.53,0.19,0.00,0.00,0.00
2024-05-01T20:50:00,217.33,0.13,217.20,0.13,0.00,0.00,0.00
2024-05-01T20:55:00,217.77,0.13,217.64,0.13,0.00,0.00,0.00
2024-05-01T21:00:00,217.23,0.13,217.10,0.13,0.00,0.00,0.00
2024-05-01T21:05:00,216.58,0.13,216.45,0.13,0.00,0.00,0.00
2024-05-01T21:10:00,215.67,0.13,215.54,0.13,0.00,0.00,0.00
2024-05-01T21:15:00,215.07,0.13,214.94,0.13,0.00,0.00,0.00
2024-05-01T21:20:00,213.89,0.13,213.76,0.13,0.00,0.00,0.00
2024-05-01T21:25:00,212.64,0.13,212.51,0.13,0.00,0.00,0.00
2024-05-01T21:30:00,210.71,0.13,210.58,0.13,0.00,0.00,0.00
2024-05-01T21:35:00,209.79,0.13,209.66,0.13,0.00,0.00,0.00
2024-05-01T21:40:00,207.9,0.13,207.77,0.13,0.00,0.00,0.00
2024-05-01T21:45:00,206.44,0.13,206.31,0.13,0.00,0.00,0.00
2024-05-01T21:50:00,205.06,0.13,204.93,0.13,0.00,0.00,0.00
2024-05-01T21:55:00,203.05,0.13,202.92,0.13,0.00,0.00,0.00
2024-05-01T22:00:00,201.98,0.13,201.85,0.13,0.00,0.00,0.00
2024-05-01T22:05:00,202.07,0.13,201.94,0.13,0.00,0.00,0.00
2024-05-01T22:10:00,203.11,0.13,202.98,0.13,0.00,0.00,0.00
2024-05-01T22:15:00,202.57,0.13,202.44,0.13,0.00,0.00,0.00
2024-05-01T22:20:00,201.72,0.13,201.59,0.13,0.00,0.00,0.00
2024-05-01T22:25:00,200.62,0.13,200.49,0.13,0.00,0.00,0.00
2024-05-01T22:30:00,199.2,0.13,199.07,0.13,0.00,0.00,0.00
2024-05-01T22:35:00,197.95,0.13,197.82,0.13,0.00,0.00,0.00
2024-05-01T22:40:00,195.91,0.13,195.78,0.13,0.00,0.00,0.00
2024-05-01T22:45:00,194.03,0.13,193.90,0.13,0.00,0.00,0.00
2024-05-01T22:50:00,192.91,0.13,192.78,0.13,0.00,0.00,0.00
2024-05-01T22:55:00,191.87,0.13,191.74,0.13,0.00,0.00,0.00
2024-05-01T23:00:00,190.29,0.13,190.16,0.13,0.00,0.00,0.00
2024-05-01T23:05:00,186.41,0.13,186.28,0.13,0.00,0.00,0.00
2024-05-01T23:10:00,182.15,0.13,182.02,0.13,0.00,0.00,0.00
2024-05-01T23:15:00,180.88,0.13,180.75,0.13,0.00,0.00,0.00
2024-05-01T23:20:00,179.62,0.13,179.49,0.13,0.00,0.00,0.00
2024-05-01T23:25:00,178.91,0.13,178.78,0.13,0.00,0.00,0.00
2024-05-01T23:30:00,177.83,0.13,177.70,0.13,0.00,0.00,0.00
2024-05-01T23:35:00,178.19,0.13,178.06,0.13,0.00,0.00,0.00
2024-05-01T23:40:00,178,0.13,177.87,0.13,0.00,0.00,0.00
2024-05-01T23:45:00,177.16,0.13,177.03,0.13,0.00,0.00,0.00
2024-05-01T23:50:00,176.59,0.13,176.46,0.13,0.00,0.00,0.00
2024-05-01T23:55:00,175.92,0.13,175.79,0.13,0.00,0.00,0.00
2024-05-02T00:00:00,174.97,0.13,174.84,0.13,0.00,0.00,0.00
2024-05-02T00:05:00,174.99,0.13,174.86,0.13,0.00,0.00,0.00
2024-05-02T00:10:00,175.23,0.13,175.10,0.13,0.00,0.00,0.00
2024-05-02T00:15:00,174.76,0.13,174.63,0.13,0.00,0.00,0.00
2024-05-02T00:20:00,174.23,0.13,174.10,0.13,0.00,0.00,0.00
2024-05-02T00:25:00,174.2,0.13,174.07,0.13,0.00,0.00,0.00
2024-05-02T00:30:00,173.02,0.13,172.89,0.13,0.00,0.00,0.00
2024-05-02T00:35:00,173.66,0.13,173.53,0.13,0.00,0.00,0.00
2024-05-02T00:40:00,173.6,0.13,173.47,0.13,0.00,0.00,0.00
2024-05-02T00:45:00,173.36,0.13,173.23,0.13,0.00,0.00,0.00
2024-05-02T00:50:00,174.08,0.13,173.95,0.13,0.00,0.00,0.00
2024-05-02T00:55:00,178.45,0.13,178.32,0.13,0.00,0.00,0.00
2024-05-02T01:00:00,178.31,0.13,178.18,0.13,0.00,0.00,0.00
2024-05-02T01:05:00,179.34,0.13,179.21,0.13,0.00,0.00,0.00
2024-05-02T01:10:00,179.63,0.13,179.50,0.13,0.00,0.00,0.00
2024-05-02T01:15:00,179.76,0.13,179.63,0.13,0.00,0.00,0.00
2024-05-02T01:20:00,179.81,0.13,179.68,0.13,0.00,0.00,0.00
2024-05-02T01:25:00,179.13,0.13,179.00,0.13,0.00,0.00,0.00
2024-05-02T01:30:00,178.71,0.13,178.58,0.13,0.00,0.00,0.00
2024-05-02T01:35:00,181.34,0.13,181.21,0.13,0.00,0.00,0.00
2024-05-02T01:40:00,182.71,0.13,182.58,0.13,0.00,0.00,0.00
2024-05-02T01:45:00,182.96,0.13,182.83,0.13,0.00,0.00,0.00
2024-05-02T01:50:00,182.78,0.13,182.65,0.13,0.00,0.00,0.00
2024-05-02T01:55:00,182.53,0.13,182.40,0.13,0.00,0.00,0.00
2024-05-02T02:00:00,181.82,0.13,181.69,0.13,0.00,0.00,0.00
2024-05-02T02:05:00,181.81,0.13,181.68,0.13,0.00,0.00,0.00
